Estación de Huelquen
Ultimos registro cada 15 minutos 46
| N° | Estación | Fecha / Hora | Temperatura | Humedad | Lluvia | Velocidad | Dirección | Radiación | Presion |
| 46 | Huelquen | 05-05-2026 11:30 | 19,2 | 48 | 0 | 0 | 245 | 522 | 1012,1 |
| 45 | Huelquen | 05-05-2026 11:15 | 18,9 | 49 | 0 | 0 | 262 | 185 | 1012,5 |
| 44 | Huelquen | 05-05-2026 11:00 | 18,8 | 49 | 0 | 0 | 259 | 250 | 1012,8 |
| 43 | Huelquen | 05-05-2026 10:45 | 18,3 | 51 | 0 | 0 | 172 | 216 | 1013 |
| 42 | Huelquen | 05-05-2026 10:30 | 17,6 | 54 | 0 | 0 | 172 | 262 | 1013,3 |
| 41 | Huelquen | 05-05-2026 10:15 | 16,4 | 59 | 0 | 0 | 174 | 216 | 1013,5 |
| 40 | Huelquen | 05-05-2026 10:00 | 15,4 | 63 | 0 | 0 | 164 | 178 | 1013,6 |
| 39 | Huelquen | 05-05-2026 09:45 | 14,6 | 68 | 0 | 0 | 274 | 135 | 1013,8 |
| 38 | Huelquen | 05-05-2026 09:30 | 14,2 | 66 | 0 | 0 | 274 | 83 | 1013,8 |
| 37 | Huelquen | 05-05-2026 09:15 | 13,7 | 68 | 0 | 0 | 274 | 77 | 1013,5 |
| 36 | Huelquen | 05-05-2026 09:00 | 12,9 | 72 | 0 | 0 | 231 | 77 | 1013,5 |
| 35 | Huelquen | 05-05-2026 08:45 | 12,4 | 76 | 0 | 0 | 95 | 63 | 1013,5 |
| 34 | Huelquen | 05-05-2026 08:30 | 11,6 | 77 | 0 | 0 | 100 | 63 | 1013,8 |
| 33 | Huelquen | 05-05-2026 08:15 | 11,3 | 79 | 0 | 0 | 100 | 26 | 1014,5 |
| 32 | Huelquen | 05-05-2026 08:00 | 10,9 | 79 | 0 | 0 | 100 | 30 | 1014,8 |
| 31 | Huelquen | 05-05-2026 07:45 | 10,8 | 80 | 0 | 0 | 100 | 0 | 1015 |
| 30 | Huelquen | 05-05-2026 07:15 | 10,8 | 81 | 0 | 0 | 100 | 0 | 1015 |
| 29 | Huelquen | 05-05-2026 07:00 | 10,6 | 81 | 0 | 0 | 99 | 0 | 1015,1 |
| 28 | Huelquen | 05-05-2026 06:45 | 10,4 | 81 | 0 | 0 | 99 | 0 | 1015 |
| 27 | Huelquen | 05-05-2026 06:30 | 10,3 | 82 | 0 | 0 | 154 | 0 | 1015,1 |
| 26 | Huelquen | 05-05-2026 06:15 | 10,2 | 82 | 0 | 0 | 154 | 0 | 1014,8 |
| 25 | Huelquen | 05-05-2026 06:00 | 10,2 | 83 | 0 | 0 | 154 | 0 | 1014,8 |
| 24 | Huelquen | 05-05-2026 05:45 | 10 | 82 | 0 | 0 | 154 | 0 | 1014,5 |
| 23 | Huelquen | 05-05-2026 05:30 | 9,8 | 83 | 0 | 0 | 154 | 0 | 1013,7 |
| 22 | Huelquen | 05-05-2026 05:15 | 9,4 | 83 | 0 | 0 | 154 | 0 | 1013,6 |
| 21 | Huelquen | 05-05-2026 05:00 | 9,2 | 84 | 0 | 0 | 154 | 0 | 1013,6 |
| 20 | Huelquen | 05-05-2026 04:45 | 9,2 | 84 | 0 | 0 | 154 | 0 | 1013,6 |
| 19 | Huelquen | 05-05-2026 04:30 | 9,2 | 84 | 0 | 0 | 154 | 0 | 1013,6 |
| 18 | Huelquen | 05-05-2026 04:15 | 9,1 | 83 | 0 | 0 | 154 | 0 | 1013 |
| 17 | Huelquen | 05-05-2026 04:00 | 9 | 83 | 0 | 0 | 154 | 0 | 1013 |
| 16 | Huelquen | 05-05-2026 03:45 | 8,9 | 82 | 0 | 0 | 154 | 0 | 1013 |
| 15 | Huelquen | 05-05-2026 03:30 | 9,1 | 82 | 0 | 0 | 154 | 0 | 1012,9 |
| 14 | Huelquen | 05-05-2026 03:15 | 9,5 | 82 | 0 | 0 | 154 | 0 | 1013,1 |
| 13 | Huelquen | 05-05-2026 03:00 | 9,8 | 82 | 0 | 0 | 154 | 0 | 1013,2 |
| 12 | Huelquen | 05-05-2026 02:45 | 9,8 | 83 | 0 | 0 | 169 | 0 | 1013,4 |
| 11 | Huelquen | 05-05-2026 02:30 | 9,9 | 83 | 0 | 0 | 169 | 0 | 1013,4 |
| 10 | Huelquen | 05-05-2026 02:15 | 9,9 | 83 | 0 | 0 | 169 | 0 | 1013,7 |
| 9 | Huelquen | 05-05-2026 02:00 | 9,7 | 83 | 0 | 0 | 169 | 0 | 1013,9 |
| 8 | Huelquen | 05-05-2026 01:45 | 9,6 | 83 | 0 | 0 | 169 | 0 | 1014,1 |
| 7 | Huelquen | 05-05-2026 01:30 | 9,6 | 83 | 0 | 0 | 169 | 0 | 1014,2 |
| 6 | Huelquen | 05-05-2026 01:15 | 9,6 | 82 | 0 | 0 | 169 | 0 | 1014,3 |
| 5 | Huelquen | 05-05-2026 01:00 | 9,6 | 82 | 0 | 0 | 169 | 0 | 1014,3 |
| 4 | Huelquen | 05-05-2026 00:45 | 9,4 | 83 | 0 | 0 | 169 | 0 | 1014,6 |
| 3 | Huelquen | 05-05-2026 00:30 | 9,3 | 82 | 0 | 0 | 169 | 0 | 1014,7 |
| 2 | Huelquen | 05-05-2026 00:15 | 9,1 | 82 | 0 | 0 | 169 | 0 | 1014,7 |
| 1 | Huelquen | 05-05-2026 00:00 | 9,1 | 82 | 0 | 0 | 169 | 0 | 1014,6 |